Regional Weather Roundup
Issued by NWS

Home | Current Version | Previous Version | Text Only | Print | Product List | Glossary Off
Versions: 1 2 3 4 5 6 7 8 9 10 11 12 13 14 15 16 17 18 19 20 21 22 23 24 25 26 27 28 29 30 31 32 33 34 35 36 37 38 39 40 41 42 43 44 45 46 47 48 49 50

000
ASUS45 KTFX 251910
RWRMT
MONTANA REGIONAL WEATHER ROUNDUP
NATIONAL WEATHER SERVICE GREAT FALLS MT
100 PM MDT MON MAY 25 2015

NOTE: "FAIR" INDICATES FEW OR NO CLOUDS BELOW 12000 FEET WITH NO
SIGNIFICANT WEATHER AND/OR OBSTRUCTIONS TO VISIBILITY.

MTZ001>007-043-252000-
WEST OF THE DIVIDE

CITY           SKY/WX    TMP DP  RH WIND       PRES   REMARKS
KALISPELL      CLOUDY    60  49  66 VRB7      29.91S
MISSOULA       PTSUNNY   69  40  34 MISG      29.87F
BUTTE          SUNNY     61  33  35 VRB3      29.94F
MULLAN PASS    CLOUDY    48  44  86 CALM      29.97S
DEER LODGE       N/A     64  39  39 E5        29.94F
EUREKA           N/A     57  52  82 SE10      29.93S
HAMILTON         N/A     68  41  37 NW3       29.85F
LIBBY            N/A     61  50  67 SE3       29.91F
PLAINS           N/A     60  47  62 NW10      29.93R
RONAN            N/A     68  45  43 NW12      29.94F
$$

MTZ008-052>055-252000-
SOUTHWEST MONTANA

CITY           SKY/WX    TMP DP  RH WIND       PRES   REMARKS
BOZEMAN        MOSUNNY   63  46  54 NE5       29.93F
DILLON         SUNNY     63  36  36 VRB6      29.92F
W YELLOWSTONE  CLOUDY    54  36  50 CALM      29.98S
THREE FORKS      N/A     63  63 100 E2        29.93F
TWIN BRIDGES     N/A     64  37  36 S1        29.92F
$$

MTZ009-010-012-014-046-048-049-054-252000-
EAST SLOPES AND CENTRAL MONTANA

CITY           SKY/WX    TMP DP  RH WIND       PRES   REMARKS
CUT BANK       MOSUNNY   69  41  36 S16G22    29.88F
GREAT FALLS    SUNNY     67  42  40 CALM      29.89F
HELENA         MOSUNNY   67  43  41 VRB5      29.88F
CONRAD           N/A     68  46  45 NE10      29.93F
$$

MTZ011-013-016-021-045-047-050-051-252000-
NORTH CENTRAL MONTANA

CITY           SKY/WX    TMP DP  RH WIND       PRES   REMARKS
HAVRE          MOSUNNY   74  39  28 E10       29.86F
LEWISTOWN      MOSUNNY   66  45  46 S6        29.92S
N BAR RANCH    FAIR      61  43  51 SE8       29.96S
CHINOOK          N/A     73  37  27 E6        29.86F
FORT BENTON      N/A     70  43  37 E12       29.88F
$$

MTZ017>020-022>027-061-062-252000-
NORTHEAST MONTANA

CITY           SKY/WX    TMP DP  RH WIND       PRES   REMARKS
GLASGOW        SUNNY     75  41  29 SE13      29.85F
JORDAN           N/A     71  41  33 CALM      29.86F
SIDNEY         PTSUNNY   72  52  49 SE6       29.88F
WOLF POINT     MOSUNNY   76  44  32 N5        29.86S
MALTA            N/A     76  40  27 CALM      29.84F
POPLAR           N/A     73  46  38 SE9       29.87S
$$

MTZ028>42-056>058-252000-
SOUTHCENTRAL AND SOUTHEAST MONTANA

CITY           SKY/WX    TMP DP  RH WIND       PRES   REMARKS
BAKER          CLOUDY    58  52  80 E20       29.91S
BILLINGS       PTSUNNY   62  46  55 S5        29.93F
LIVINGSTON     MOSUNNY   66  42  41 VRB7      29.92F
MILES CITY     PTSUNNY   67  49  52 VRB7      29.88F
BIG TIMBER       N/A     63  45  51 NW3       29.94F
FORSYTH          N/A     64  50  59 CALM      29.88F
LAUREL           N/A     61  44  53 NE1       29.93S
ROUNDUP          N/A     67  46  46 S1        29.84S
$$

REGIONAL REPORTS...DAKOTAS

CITY           SKY/WX    TMP DP  RH WIND       PRES   REMARKS
WILLISTON      PTSUNNY   77  44  30 VRB6      29.85F
MINOT          MOSUNNY   76  43  30 NW3       29.82F
DICKINSON      LGT RAIN  60  52  74 E8        29.88S
BEACH          CLOUDY    59  55  88 E9        29.92S
CROSBY         FAIR      75  37  25 NE5       29.86S
WATFORD CITY   CLOUDY    70  46  43 NE5       29.85S
BISMARCK       CLOUDY    66  53  63 SW8       29.86S
GRAND FORKS    CLOUDY    72  51  47 N3        29.75S
FARGO          CLOUDY    65  54  67 NE16G25   29.77S
BUFFALO SD       N/A     56  53  90 NE12      29.82S
RAPID CITY     LGT RAIN  58  52  80 N16       29.83S
$$

REGIONAL REPORTS...WYOMING/IDAHO/WASHINGTON

CITY           SKY/WX    TMP DP  RH WIND       PRES   REMARKS
GILLETTE       CLOUDY    56  49  77 N12       29.91F
SHERIDAN       CLOUDY    60  46  59 CALM      29.93F
BUFFALO WY     PTSUNNY   54  48  80 N8        29.96S
CODY           MOSUNNY   57  45  62 N6        29.95S
YELLOWSTONE LA   N/A     49  32  52 E7        30.04F
IDAHO FALLS    PTSUNNY   63  46  54 VRB5      29.94F
SALMON         PTSUNNY   64  43  45 NE5       29.88F
BOISE          SUNNY     73  47  39 CALM      29.87F
SPOKANE        CLOUDY    57  49  74 S6        29.91S
$$

REGIONAL REPORTS...ALBERTA

CITY           SKY/WX    TMP DP  RH WIND       PRES   REMARKS
EDMONTON       PTSUNNY   77  36  22 NW2       29.84F
CALGARY        CLOUDY    70  41  35 S14G26    29.88F
LETHBRIDGE     PTSUNNY   73  41  31 S16G28    29.86F
MEDICINE HAT   LGT RAIN  70  41  35 NE10G22   29.87R
$$

REGIONAL REPORTS...SASKATCHEWAN

CITY           SKY/WX    TMP DP  RH WIND       PRES   REMARKS
SWIFT CURRENT  PTSUNNY   75  32  20 E14       29.86F
REGINA         CLOUDY    75  39  27 NW20      29.83S
SASKATOON      PTSUNNY   82  32  16 VRB10     29.82F
$$



USA.gov is the U.S. government's official web portal to all federal, state and local government web resources and services.